Terminal Aerodrome Forecast
Issued by NWS

Home | Current Version | Previous Version | Text Only | Print | Product List | Glossary On
Versions: 1 2 3 4 5 6 7 8 9 10 11 12 13 14 15 16 17 18 19 20 21 22 23 24 25
000
FTUS43 KDLH 251700
TAFHYR
TAF
KHYR 251729Z 2518/2618 24011G20KT P6SM OVC010
     FM252000 26013G25KT P6SM OVC020
     FM252200 28015G29KT P6SM OVC030
     FM260000 29015G29KT P6SM OVC035
     FM260400 30013G24KT P6SM OVC030
     FM261400 34011KT P6SM SCT035=

USA.gov is the U.S. government's official web portal to all federal, state and local government web resources and services.